Location: Unspecified
(48.5670°N, 0.0000°E)
Time: 00:20:27
(UTC+00:00)

Vanguard 2 Rocket - Pass Details

Date: 27 August 2019
Orbit: 554 x 3327 km, 32.9° (Epoch: 20 September)

Event Time Altitude Azimuth Distance (km) Brightness Sun altitude
Rises 05:36:31 0° 263° (W) 5,577 10.2 3.5°
Reaches altitude 10° 05:40:00 10° 256° (WSW) 4,909 10.0 4.0°
Maximum altitude 05:53:38 41° 194° (SSW) 3,912 10.0 6.3°
Drops below altitude 10° 06:11:19 10° 134° (SE) 6,273 11.9 9.2°
Sets 06:16:34 0° 128° (SE) 7,215 12.3 10.0°
